Location: Tauranga
(37.6860°S, 176.1670°E)
Time: 19:57:38
(UTC+13:00)

H-2A R/B - Pass Details

Date: 24 January 2019
Orbit: 261 x 32959 km, 27.9° (Epoch: 17 February)

Event Time Altitude Azimuth Distance (km) Brightness Sun altitude
Rises 22:05:26 0° 312° (NW) 2,339 4.6 -15.9°
Reaches altitude 10° 22:06:51 10° 326° (NW) 1,819 3.9 -16.1°
Maximum altitude 22:10:13 30° 31° (NNE) 1,732 3.3 -16.6°
Drops below altitude 10° 22:22:18 10° 85° (E) 6,743 6.4 -18.4°
Sets 22:37:03 0° 91° (E) 12,180 7.7 -20.4°
